Time,TemperatureF,DewpointF,PressureIn,WindDirection,WindDirectionDegrees,WindSpeedMPH,WindSpeedGustMPH,Humidity,HourlyPrecipIn,Conditions,Clouds,dailyrainin,SoftwareType,DateUTC
2013-08-07 00:01:00,79.0,74.1,29.99,NE,45,2.0,-999.0,85,-99.99,,,0.00,meteohub,2013-08-07 04:01:00,
2013-08-07 00:02:00,79.0,74.1,29.99,NE,45,0.0,-999.0,85,-99.99,,,0.00,meteohub,2013-08-07 04:02:00,
2013-08-07 00:04:00,79.0,74.1,29.99,NE,45,2.0,-999.0,85,-99.99,,,0.00,meteohub,2013-08-07 04:04:00,
2013-08-07 00:06:00,79.0,74.1,29.99,NE,45,0.0,-999.0,85,-99.99,,,0.00,meteohub,2013-08-07 04:06:00,
2013-08-07 00:11:00,79.0,74.1,29.99,NE,45,2.0,-999.0,85,-99.99,,,0.00,meteohub,2013-08-07 04:11:00,
2013-08-07 00:16:00,79.0,74.1,29.98,NE,45,2.0,-999.0,85,-99.99,,,-99.99,meteohub,2013-08-07 04:16:00,
2013-08-07 00:21:00,79.0,74.1,29.98,NE,45,3.0,-999.0,85,-99.99,,,-99.99,meteohub,2013-08-07 04:21:00,
2013-08-07 00:26:00,79.0,75.4,29.98,NE,45,5.0,-999.0,89,-99.99,,,-99.99,meteohub,2013-08-07 04:26:00,
2013-08-07 00:31:00,79.0,74.1,29.98,NE,45,4.0,-999.0,85,-99.99,,,-99.99,meteohub,2013-08-07 04:31:00,
2013-08-07 00:37:00,79.0,73.8,29.98,NE,45,7.0,-999.0,84,-99.99,,,-99.99,meteohub,2013-08-07 04:37:00,
2013-08-07 00:42:00,79.0,74.1,29.98,NE,45,2.0,-999.0,85,-99.99,,,-99.99,meteohub,2013-08-07 04:42:00,
2013-08-07 00:47:00,79.0,74.1,29.98,NE,45,2.0,-999.0,85,-99.99,,,-99.99,meteohub,2013-08-07 04:47:00,
2013-08-07 00:52:00,79.0,74.1,29.98,NE,45,2.0,-999.0,85,-99.99,,,-99.99,meteohub,2013-08-07 04:52:00,
2013-08-07 00:57:00,79.0,74.1,29.96,NE,45,2.0,-999.0,85,-99.99,,,-99.99,meteohub,2013-08-07 04:57:00,
2013-08-07 01:02:00,79.0,75.7,29.96,NE,45,3.0,-999.0,90,-99.99,,,-99.99,meteohub,2013-08-07 05:02:00,
2013-08-07 01:07:00,79.0,74.8,29.96,NE,45,2.0,-999.0,87,-99.99,,,-99.99,meteohub,2013-08-07 05:07:00,
2013-08-07 01:12:00,79.0,74.8,29.96,NE,45,2.0,-999.0,87,-99.99,,,-99.99,meteohub,2013-08-07 05:12:00,
2013-08-07 01:17:00,79.0,74.8,29.98,NE,45,0.0,-999.0,87,-99.99,,,-99.99,meteohub,2013-08-07 05:17:00,
2013-08-07 01:22:00,79.0,74.8,29.98,NE,45,3.0,-999.0,87,-99.99,,,-99.99,meteohub,2013-08-07 05:22:00,
2013-08-07 01:27:00,79.0,75.2,29.98,NE,45,1.0,-999.0,88,-99.99,,,-99.99,meteohub,2013-08-07 05:27:00,
2013-08-07 01:32:00,79.0,75.2,29.96,NE,45,2.0,-999.0,88,-99.99,,,-99.99,meteohub,2013-08-07 05:32:00,
2013-08-07 01:37:00,78.1,75.6,29.96,NE,45,3.0,-999.0,92,-99.99,,,-99.99,meteohub,2013-08-07 05:37:00,
2013-08-07 01:42:00,79.0,75.4,29.96,NE,45,5.0,-999.0,89,-99.99,,,-99.99,meteohub,2013-08-07 05:42:00,
2013-08-07 01:47:00,79.0,75.7,29.96,NE,45,5.0,-999.0,90,-99.99,,,-99.99,meteohub,2013-08-07 05:47:00,
2013-08-07 01:52:00,79.0,75.7,29.96,NE,45,1.0,-999.0,90,-99.99,,,-99.99,meteohub,2013-08-07 05:52:00,
2013-08-07 01:57:00,79.0,75.7,29.96,NE,45,4.0,-999.0,90,-99.99,,,-99.99,meteohub,2013-08-07 05:57:00,
2013-08-07 02:02:00,79.0,75.7,29.96,NE,45,6.0,-999.0,90,-99.99,,,-99.99,meteohub,2013-08-07 06:02:00,
2013-08-07 02:07:00,79.0,75.7,29.96,SE,135,6.0,-999.0,90,-99.99,,,-99.99,meteohub,2013-08-07 06:07:00,
2013-08-07 02:12:00,78.1,75.9,29.96,NE,45,4.0,-999.0,93,-99.99,,,-99.99,meteohub,2013-08-07 06:12:00,
2013-08-07 02:17:00,79.0,75.7,29.96,NE,45,5.0,-999.0,90,-99.99,,,-99.99,meteohub,2013-08-07 06:17:00,
2013-08-07 02:22:00,79.0,75.7,29.96,NE,45,3.0,-999.0,90,-99.99,,,-99.99,meteohub,2013-08-07 06:22:00,
2013-08-07 02:27:00,78.1,74.8,29.96,NE,45,3.0,-999.0,90,-99.99,,,-99.99,meteohub,2013-08-07 06:27:00,
2013-08-07 02:32:00,79.0,75.7,29.96,NE,45,6.0,-999.0,90,-99.99,,,-99.99,meteohub,2013-08-07 06:32:00,
2013-08-07 02:37:00,79.0,75.7,29.96,NE,45,3.0,-999.0,90,-99.99,,,-99.99,meteohub,2013-08-07 06:37:00,
2013-08-07 02:42:00,79.0,75.7,29.96,NE,45,2.0,-999.0,90,-99.99,,,-99.99,meteohub,2013-08-07 06:42:00,
2013-08-07 02:47:00,78.1,76.3,29.96,NE,45,0.0,-999.0,94,-99.99,,,-99.99,meteohub,2013-08-07 06:47:00,
2013-08-07 02:52:00,79.0,75.7,29.96,NE,45,2.0,-999.0,90,-99.99,,,-99.99,meteohub,2013-08-07 06:52:00,
2013-08-07 02:57:00,79.0,75.7,29.96,NE,45,2.0,-999.0,90,-99.99,,,-99.99,meteohub,2013-08-07 06:57:00,
2013-08-07 03:02:00,79.0,75.7,29.95,NE,45,4.0,-999.0,90,-99.99,,,-99.99,meteohub,2013-08-07 07:02:00,
2013-08-07 03:07:00,79.0,75.7,29.95,NE,45,5.0,-999.0,90,-99.99,,,-99.99,meteohub,2013-08-07 07:07:00,
2013-08-07 03:12:00,79.0,76.1,29.95,NE,45,5.0,-999.0,91,-99.99,,,-99.99,meteohub,2013-08-07 07:12:00,
2013-08-07 03:17:00,79.0,76.1,29.95,NE,45,6.0,-999.0,91,-99.99,,,-99.99,meteohub,2013-08-07 07:17:00,
2013-08-07 03:22:00,79.0,76.5,29.95,NE,45,5.0,-999.0,92,-99.99,,,-99.99,meteohub,2013-08-07 07:22:00,
2013-08-07 03:27:00,79.0,76.5,29.95,SE,135,6.0,-999.0,92,-99.99,,,-99.99,meteohub,2013-08-07 07:27:00,
2013-08-07 03:32:00,79.0,76.1,29.94,NE,45,6.0,-999.0,91,-99.99,,,-99.99,meteohub,2013-08-07 07:32:00,
2013-08-07 03:37:00,78.1,75.2,29.94,NE,45,5.0,-999.0,91,-99.99,,,-99.99,meteohub,2013-08-07 07:37:00,
2013-08-07 03:42:00,78.1,76.5,29.94,NE,45,3.0,-999.0,95,-99.99,,,-99.99,meteohub,2013-08-07 07:42:00,
2013-08-07 03:47:00,78.1,75.2,29.94,NE,45,1.0,-999.0,91,-99.99,,,-99.99,meteohub,2013-08-07 07:47:00,
2013-08-07 03:52:00,78.1,75.2,29.94,NE,45,1.0,-999.0,91,-99.99,,,-99.99,meteohub,2013-08-07 07:52:00,
2013-08-07 03:57:00,78.1,75.6,29.94,NE,45,4.0,-999.0,92,-99.99,,,-99.99,meteohub,2013-08-07 07:57:00,
2013-08-07 04:02:00,79.0,76.5,29.94,NE,45,5.0,-999.0,92,-99.99,,,-99.99,meteohub,2013-08-07 08:02:00,
2013-08-07 04:07:00,79.0,76.5,29.94,NE,45,6.0,-999.0,92,-99.99,,,-99.99,meteohub,2013-08-07 08:07:00,
2013-08-07 04:13:00,79.0,76.1,29.94,NE,45,1.0,-999.0,91,-99.99,,,-99.99,meteohub,2013-08-07 08:13:00,
2013-08-07 04:18:00,78.1,75.2,29.94,NE,45,5.0,-999.0,91,-99.99,,,-99.99,meteohub,2013-08-07 08:18:00,
2013-08-07 04:23:00,79.0,76.1,29.94,NE,45,6.0,-999.0,91,-99.99,,,-99.99,meteohub,2013-08-07 08:23:00,
2013-08-07 04:28:00,79.0,75.7,29.94,NE,45,5.0,-999.0,90,-99.99,,,-99.99,meteohub,2013-08-07 08:28:00,
2013-08-07 04:33:00,78.1,74.8,29.94,NE,45,6.0,-999.0,90,-99.99,,,-99.99,meteohub,2013-08-07 08:33:00,
2013-08-07 04:38:00,78.1,76.5,29.94,NE,45,0.0,-999.0,95,-99.99,,,-99.99,meteohub,2013-08-07 08:38:00,
2013-08-07 04:43:00,79.0,75.7,29.94,NE,45,4.0,-999.0,90,-99.99,,,-99.99,meteohub,2013-08-07 08:43:00,
2013-08-07 04:48:00,79.0,76.1,29.94,NE,45,3.0,-999.0,91,-99.99,,,-99.99,meteohub,2013-08-07 08:48:00,
2013-08-07 04:53:00,79.0,76.1,29.93,NE,45,2.0,-999.0,91,-99.99,,,-99.99,meteohub,2013-08-07 08:53:00,
2013-08-07 04:58:00,78.1,75.2,29.93,NE,45,3.0,-999.0,91,-99.99,,,-99.99,meteohub,2013-08-07 08:58:00,
2013-08-07 05:03:00,78.1,75.2,29.94,NE,45,3.0,-999.0,91,-99.99,,,-99.99,meteohub,2013-08-07 09:03:00,
2013-08-07 05:09:00,78.1,75.2,29.93,NE,45,5.0,-999.0,91,-99.99,,,-99.99,meteohub,2013-08-07 09:09:00,
2013-08-07 05:14:00,78.1,75.2,29.93,NE,45,3.0,-999.0,91,-99.99,,,-99.99,meteohub,2013-08-07 09:14:00,
2013-08-07 05:19:00,78.1,74.8,29.93,NE,45,4.0,-999.0,90,-99.99,,,-99.99,meteohub,2013-08-07 09:19:00,
2013-08-07 05:24:00,78.1,74.8,29.93,NE,45,2.0,-999.0,90,-99.99,,,-99.99,meteohub,2013-08-07 09:24:00,
2013-08-07 05:29:00,78.1,74.8,29.93,NE,45,5.0,-999.0,90,-99.99,,,-99.99,meteohub,2013-08-07 09:29:00,
2013-08-07 05:34:00,78.1,76.5,29.93,NE,45,5.0,-999.0,95,-99.99,,,-99.99,meteohub,2013-08-07 09:34:00,
2013-08-07 05:39:00,78.1,74.8,29.93,NE,45,0.0,-999.0,90,-99.99,,,-99.99,meteohub,2013-08-07 09:39:00,
2013-08-07 05:44:00,78.1,74.8,29.94,NE,45,4.0,-999.0,90,-99.99,,,-99.99,meteohub,2013-08-07 09:44:00,
2013-08-07 05:49:00,78.1,74.8,29.94,NE,45,3.0,-999.0,90,-99.99,,,-99.99,meteohub,2013-08-07 09:49:00,
2013-08-07 05:54:00,78.1,74.8,29.94,NE,45,3.0,-999.0,90,-99.99,,,-99.99,meteohub,2013-08-07 09:54:00,
2013-08-07 05:59:00,78.1,74.5,29.94,NE,45,3.0,-999.0,89,-99.99,,,-99.99,meteohub,2013-08-07 09:59:00,
2013-08-07 06:05:00,78.1,74.3,29.95,NE,45,7.0,-999.0,88,-99.99,,,-99.99,meteohub,2013-08-07 10:05:00,
2013-08-07 06:10:00,78.1,74.3,29.95,NE,45,4.0,-999.0,88,-99.99,,,-99.99,meteohub,2013-08-07 10:10:00,
2013-08-07 06:15:00,78.1,73.9,29.95,NE,45,2.0,-999.0,87,-99.99,,,-99.99,meteohub,2013-08-07 10:15:00,
2013-08-07 06:20:00,78.1,73.9,29.96,NE,45,6.0,-999.0,87,-99.99,,,-99.99,meteohub,2013-08-07 10:20:00,
2013-08-07 06:25:00,78.1,73.9,29.95,NE,45,2.0,-999.0,87,-99.99,,,-99.99,meteohub,2013-08-07 10:25:00,
2013-08-07 06:30:00,78.1,74.8,29.96,NE,45,4.0,-999.0,90,-99.99,,,-99.99,meteohub,2013-08-07 10:30:00,
2013-08-07 06:35:00,78.1,73.6,29.96,NE,45,6.0,-999.0,86,-99.99,,,-99.99,meteohub,2013-08-07 10:35:00,
2013-08-07 06:40:00,78.1,73.2,29.96,NE,45,6.0,-999.0,85,-99.99,,,-99.99,meteohub,2013-08-07 10:40:00,
2013-08-07 06:45:00,78.1,73.2,29.96,NE,45,5.0,-999.0,85,-99.99,,,-99.99,meteohub,2013-08-07 10:45:00,
2013-08-07 06:50:00,78.1,73.6,29.96,NE,45,5.0,-999.0,86,-99.99,,,-99.99,meteohub,2013-08-07 10:50:00,
2013-08-07 06:56:00,78.1,73.6,29.96,NE,45,5.0,-999.0,86,-99.99,,,-99.99,meteohub,2013-08-07 10:56:00,
2013-08-07 07:01:00,78.1,73.6,29.96,NE,45,5.0,-999.0,86,-99.99,,,-99.99,meteohub,2013-08-07 11:01:00,
2013-08-07 07:06:00,78.1,73.6,29.96,NE,45,2.0,-999.0,86,-99.99,,,-99.99,meteohub,2013-08-07 11:06:00,
2013-08-07 07:11:00,78.1,73.9,29.96,NE,45,6.0,-999.0,87,-99.99,,,-99.99,meteohub,2013-08-07 11:11:00,
2013-08-07 07:16:00,78.1,73.6,29.96,NE,45,2.0,-999.0,86,-99.99,,,-99.99,meteohub,2013-08-07 11:16:00,
2013-08-07 07:21:00,78.1,73.2,29.96,NE,45,3.0,-999.0,85,-99.99,,,-99.99,meteohub,2013-08-07 11:21:00,
2013-08-07 07:26:00,78.1,74.5,29.96,NE,45,4.0,-999.0,89,-99.99,,,-99.99,meteohub,2013-08-07 11:26:00,
2013-08-07 07:27:00,78.1,74.5,29.96,NE,45,2.0,-999.0,89,-99.99,,,-99.99,meteohub,2013-08-07 11:27:00,
2013-08-07 07:32:00,78.1,72.9,29.96,NE,45,7.0,-999.0,84,-99.99,,,-99.99,meteohub,2013-08-07 11:32:00,
2013-08-07 07:37:00,79.0,73.8,29.96,NE,45,7.0,-999.0,84,-99.99,,,-99.99,meteohub,2013-08-07 11:37:00,
2013-08-07 07:42:00,79.0,73.4,29.96,NE,45,3.0,-999.0,83,-99.99,,,-99.99,meteohub,2013-08-07 11:42:00,
2013-08-07 07:47:00,79.0,73.4,29.96,NE,45,5.0,-999.0,83,-99.99,,,-99.99,meteohub,2013-08-07 11:47:00,
2013-08-07 07:52:00,79.0,73.4,29.96,NE,45,5.0,-999.0,83,-99.99,,,-99.99,meteohub,2013-08-07 11:52:00,
2013-08-07 07:57:00,79.0,73.0,29.96,NE,45,2.0,-999.0,82,-99.99,,,-99.99,meteohub,2013-08-07 11:57:00,
2013-08-07 08:02:00,79.0,74.8,29.96,NE,45,7.0,-999.0,87,-99.99,,,-99.99,meteohub,2013-08-07 12:02:00,
2013-08-07 08:07:00,80.1,73.4,29.96,NE,45,7.0,-999.0,80,-99.99,,,-99.99,meteohub,2013-08-07 12:07:00,
2013-08-07 08:12:00,80.1,73.8,29.96,NE,45,7.0,-999.0,81,-99.99,,,-99.99,meteohub,2013-08-07 12:12:00,
2013-08-07 08:17:00,80.1,74.1,29.96,NE,45,8.0,-999.0,82,-99.99,,,-99.99,meteohub,2013-08-07 12:17:00,
2013-08-07 08:22:00,80.1,73.8,29.96,NE,45,7.0,-999.0,81,-99.99,,,-99.99,meteohub,2013-08-07 12:22:00,
2013-08-07 08:27:00,80.1,73.8,29.98,SE,135,6.0,-999.0,81,-99.99,,,-99.99,meteohub,2013-08-07 12:27:00,
2013-08-07 08:32:00,80.1,73.8,29.98,SE,135,7.0,-999.0,81,-99.99,,,-99.99,meteohub,2013-08-07 12:32:00,
2013-08-07 08:37:00,80.1,75.2,29.98,NE,45,4.0,-999.0,85,-99.99,,,-99.99,meteohub,2013-08-07 12:37:00,
2013-08-07 08:42:00,81.0,74.7,29.98,SE,135,8.0,-999.0,81,-99.99,,,-99.99,meteohub,2013-08-07 12:42:00,
2013-08-07 08:47:00,81.0,75.0,29.98,SE,135,9.0,-999.0,82,-99.99,,,-99.99,meteohub,2013-08-07 12:47:00,
2013-08-07 08:52:00,81.0,74.7,29.98,SE,135,9.0,-999.0,81,-99.99,,,-99.99,meteohub,2013-08-07 12:52:00,
2013-08-07 08:57:00,81.0,74.7,29.98,SE,135,8.0,-999.0,81,-99.99,,,-99.99,meteohub,2013-08-07 12:57:00,
2013-08-07 09:02:00,81.0,74.7,29.98,SE,135,7.0,-999.0,81,-99.99,,,-99.99,meteohub,2013-08-07 13:02:00,
2013-08-07 09:07:00,82.0,75.6,29.99,SE,135,7.0,-999.0,81,-99.99,,,-99.99,meteohub,2013-08-07 13:07:00,
2013-08-07 09:12:00,82.0,75.2,29.98,SE,135,6.0,-999.0,80,-99.99,,,-99.99,meteohub,2013-08-07 13:12:00,
2013-08-07 09:17:00,82.0,75.6,29.98,SE,135,7.0,-999.0,81,-99.99,,,-99.99,meteohub,2013-08-07 13:17:00,
2013-08-07 09:22:00,82.0,75.6,29.99,SE,135,10.0,-999.0,81,-99.99,,,-99.99,meteohub,2013-08-07 13:22:00,
2013-08-07 09:27:00,82.0,75.6,29.99,SE,135,7.0,-999.0,81,-99.99,,,-99.99,meteohub,2013-08-07 13:27:00,
2013-08-07 09:32:00,82.0,77.0,29.99,SE,135,8.0,-999.0,85,-99.99,,,-99.99,meteohub,2013-08-07 13:32:00,
2013-08-07 09:37:00,82.0,75.6,29.99,SE,135,8.0,-999.0,81,-99.99,,,-99.99,meteohub,2013-08-07 13:37:00,
2013-08-07 09:42:00,82.0,75.6,29.99,SE,135,9.0,-999.0,81,-99.99,,,-99.99,meteohub,2013-08-07 13:42:00,
2013-08-07 09:48:00,82.9,76.5,29.99,SE,135,10.0,-999.0,81,-99.99,,,-99.99,meteohub,2013-08-07 13:48:00,
2013-08-07 09:53:00,82.9,76.5,29.99,SE,135,12.0,-999.0,81,-99.99,,,-99.99,meteohub,2013-08-07 13:53:00,
2013-08-07 09:58:00,82.9,76.1,29.99,SE,135,7.0,-999.0,80,-99.99,,,-99.99,meteohub,2013-08-07 13:58:00,
2013-08-07 10:03:00,82.9,76.1,30.00,SE,135,6.0,-999.0,80,-99.99,,,-99.99,meteohub,2013-08-07 14:03:00,
2013-08-07 10:08:00,82.9,76.1,30.00,SE,135,10.0,-999.0,80,-99.99,,,-99.99,meteohub,2013-08-07 14:08:00,
2013-08-07 10:13:00,82.9,75.7,30.00,SE,135,7.0,-999.0,79,-99.99,,,-99.99,meteohub,2013-08-07 14:13:00,
2013-08-07 10:18:00,82.9,75.7,30.00,SE,135,7.0,-999.0,79,-99.99,,,-99.99,meteohub,2013-08-07 14:18:00,
2013-08-07 10:23:00,82.9,75.0,30.00,SE,135,7.0,-999.0,77,-99.99,,,-99.99,meteohub,2013-08-07 14:23:00,
2013-08-07 10:28:00,84.0,77.5,30.00,SE,135,7.0,-999.0,81,-99.99,,,-99.99,meteohub,2013-08-07 14:28:00,
2013-08-07 10:33:00,84.0,76.5,30.00,SE,135,7.0,-999.0,78,-99.99,,,-99.99,meteohub,2013-08-07 14:33:00,
2013-08-07 10:38:00,84.0,76.1,30.00,SE,135,9.0,-999.0,77,-99.99,,,-99.99,meteohub,2013-08-07 14:38:00,
2013-08-07 10:44:00,84.0,75.2,30.01,SE,135,10.0,-999.0,75,-99.99,,,-99.99,meteohub,2013-08-07 14:44:00,
2013-08-07 10:49:00,84.0,76.8,30.01,SE,135,10.0,-999.0,79,-99.99,,,-99.99,meteohub,2013-08-07 14:49:00,
2013-08-07 10:54:00,84.0,75.2,30.01,SE,135,10.0,-999.0,75,-99.99,,,-99.99,meteohub,2013-08-07 14:54:00,
2013-08-07 10:59:00,84.0,75.6,30.01,SE,135,7.0,-999.0,76,-99.99,,,-99.99,meteohub,2013-08-07 14:59:00,
2013-08-07 11:04:00,84.0,74.8,30.01,SE,135,9.0,-999.0,74,-99.99,,,-99.99,meteohub,2013-08-07 15:04:00,
2013-08-07 11:09:00,84.0,73.9,30.01,SE,135,9.0,-999.0,72,-99.99,,,-99.99,meteohub,2013-08-07 15:09:00,
2013-08-07 11:14:00,84.0,74.8,30.01,SE,135,7.0,-999.0,74,-99.99,,,-99.99,meteohub,2013-08-07 15:14:00,
2013-08-07 11:20:00,84.0,75.2,30.01,SE,135,9.0,-999.0,75,-99.99,,,-99.99,meteohub,2013-08-07 15:20:00,
2013-08-07 11:25:00,84.0,74.5,30.01,SE,135,9.0,-999.0,73,-99.99,,,-99.99,meteohub,2013-08-07 15:25:00,
2013-08-07 11:30:00,84.0,72.0,30.01,SE,135,10.0,-999.0,67,-99.99,,,-99.99,meteohub,2013-08-07 15:30:00,
2013-08-07 11:35:00,84.9,75.2,30.01,SE,135,6.0,-999.0,73,-99.99,,,-99.99,meteohub,2013-08-07 15:35:00,
2013-08-07 11:40:00,84.9,74.5,30.01,SE,135,9.0,-999.0,71,-99.99,,,-99.99,meteohub,2013-08-07 15:40:00,
2013-08-07 11:45:00,84.9,75.2,30.01,SE,135,7.0,-999.0,73,-99.99,,,-99.99,meteohub,2013-08-07 15:45:00,
2013-08-07 11:50:00,84.9,70.9,30.01,SE,135,9.0,-999.0,63,-99.99,,,-99.99,meteohub,2013-08-07 15:50:00,
2013-08-07 11:55:00,84.9,72.7,30.00,SE,135,6.0,-999.0,67,-99.99,,,-99.99,meteohub,2013-08-07 15:55:00,
2013-08-07 12:00:00,84.9,70.9,29.99,SE,135,10.0,-999.0,63,-99.99,,,-99.99,meteohub,2013-08-07 16:00:00,
2013-08-07 12:05:00,84.9,73.2,29.99,SE,135,7.0,-999.0,68,-99.99,,,-99.99,meteohub,2013-08-07 16:05:00,
2013-08-07 12:10:00,84.9,72.7,29.99,SE,135,10.0,-999.0,67,-99.99,,,-99.99,meteohub,2013-08-07 16:10:00,
2013-08-07 12:16:00,84.9,72.7,29.99,SE,135,6.0,-999.0,67,-99.99,,,-99.99,meteohub,2013-08-07 16:16:00,
2013-08-07 12:21:00,84.9,73.2,29.99,SE,135,10.0,-999.0,68,-99.99,,,-99.99,meteohub,2013-08-07 16:21:00,
2013-08-07 12:26:00,84.9,72.7,29.99,SE,135,11.0,-999.0,67,-99.99,,,-99.99,meteohub,2013-08-07 16:26:00,
2013-08-07 12:31:00,84.9,71.8,29.99,SE,135,8.0,-999.0,65,-99.99,,,-99.99,meteohub,2013-08-07 16:31:00,
2013-08-07 12:36:00,84.9,68.5,29.99,SE,135,10.0,-999.0,58,-99.99,,,-99.99,meteohub,2013-08-07 16:36:00,
2013-08-07 12:41:00,86.0,72.0,29.99,SE,135,8.0,-999.0,63,-99.99,,,-99.99,meteohub,2013-08-07 16:41:00,
2013-08-07 12:46:00,84.9,71.4,29.99,SE,135,10.0,-999.0,64,-99.99,,,-99.99,meteohub,2013-08-07 16:46:00,
2013-08-07 12:51:00,84.9,70.9,29.99,SE,135,11.0,-999.0,63,-99.99,,,-99.99,meteohub,2013-08-07 16:51:00,
2013-08-07 12:56:00,84.9,72.3,29.99,SE,135,9.0,-999.0,66,-99.99,,,-99.99,meteohub,2013-08-07 16:56:00,
2013-08-07 13:01:00,84.9,70.9,29.99,SE,135,10.0,-999.0,63,-99.99,,,-99.99,meteohub,2013-08-07 17:01:00,
2013-08-07 13:06:00,84.9,70.9,29.99,SE,135,6.0,-999.0,63,-99.99,,,-99.99,meteohub,2013-08-07 17:06:00,
2013-08-07 13:12:00,84.9,68.9,29.99,SE,135,9.0,-999.0,59,-99.99,,,-99.99,meteohub,2013-08-07 17:12:00,
2013-08-07 13:17:00,86.0,71.4,29.98,SE,135,9.0,-999.0,62,-99.99,,,-99.99,meteohub,2013-08-07 17:17:00,
2013-08-07 13:22:00,86.0,73.8,29.98,SE,135,10.0,-999.0,67,-99.99,,,-99.99,meteohub,2013-08-07 17:22:00,
2013-08-07 13:27:00,86.0,68.0,29.98,SE,135,9.0,-999.0,55,-99.99,,,-99.99,meteohub,2013-08-07 17:27:00,
2013-08-07 13:32:00,86.0,72.0,29.98,SE,135,10.0,-999.0,63,-99.99,,,-99.99,meteohub,2013-08-07 17:32:00,
2013-08-07 13:37:00,86.0,72.0,29.98,SE,135,10.0,-999.0,63,-99.99,,,-99.99,meteohub,2013-08-07 17:37:00,
2013-08-07 13:42:00,86.0,71.4,29.98,SE,135,12.0,-999.0,62,-99.99,,,-99.99,meteohub,2013-08-07 17:42:00,
2013-08-07 13:47:00,86.0,70.0,29.96,SE,135,8.0,-999.0,59,-99.99,,,-99.99,meteohub,2013-08-07 17:47:00,
2013-08-07 13:52:00,87.1,69.4,29.96,SE,135,7.0,-999.0,56,-99.99,,,-99.99,meteohub,2013-08-07 17:52:00,
2013-08-07 13:57:00,87.1,70.0,29.96,SE,135,9.0,-999.0,57,-99.99,,,-99.99,meteohub,2013-08-07 17:57:00,
2013-08-07 14:02:00,87.1,72.0,29.96,SE,135,13.0,-999.0,61,-99.99,,,-99.99,meteohub,2013-08-07 18:02:00,
2013-08-07 14:07:00,86.0,71.1,29.96,SE,135,11.0,-999.0,61,-99.99,,,-99.99,meteohub,2013-08-07 18:07:00,
2013-08-07 14:12:00,86.0,71.1,29.96,South,180,7.0,-999.0,61,-99.99,,,-99.99,meteohub,2013-08-07 18:12:00,
2013-08-07 14:17:00,87.1,73.4,29.96,SSE,157,9.0,-999.0,64,-99.99,,,-99.99,meteohub,2013-08-07 18:17:00,
2013-08-07 14:22:00,87.1,72.5,29.96,SSE,157,8.0,-999.0,62,-99.99,,,-99.99,meteohub,2013-08-07 18:22:00,
2013-08-07 14:27:00,87.1,72.9,29.96,South,180,9.0,-999.0,63,-99.99,,,-99.99,meteohub,2013-08-07 18:27:00,
2013-08-07 14:32:00,86.0,73.8,29.96,SE,135,8.0,-999.0,67,-99.99,,,-99.99,meteohub,2013-08-07 18:32:00,
2013-08-07 14:37:00,86.0,72.3,29.96,SE,135,6.0,-999.0,64,-99.99,,,-99.99,meteohub,2013-08-07 18:37:00,
2013-08-07 14:42:00,86.0,73.2,29.96,SSW,202,8.0,-999.0,66,-99.99,,,-99.99,meteohub,2013-08-07 18:42:00,
2013-08-07 14:47:00,86.0,73.8,29.96,SSW,202,10.0,-999.0,67,-99.99,,,-99.99,meteohub,2013-08-07 18:47:00,
2013-08-07 14:52:00,86.0,73.8,29.96,SW,225,5.0,-999.0,67,-99.99,,,-99.99,meteohub,2013-08-07 18:52:00,
2013-08-07 14:57:00,86.0,72.3,29.96,SSE,157,7.0,-999.0,64,-99.99,,,-99.99,meteohub,2013-08-07 18:57:00,
2013-08-07 15:02:00,86.0,72.0,29.96,SSW,202,11.0,-999.0,63,-99.99,,,-99.99,meteohub,2013-08-07 19:02:00,
2013-08-07 15:07:00,86.0,72.0,29.96,SW,225,7.0,-999.0,63,-99.99,,,-99.99,meteohub,2013-08-07 19:07:00,
2013-08-07 15:12:00,86.0,70.5,29.96,SW,225,9.0,-999.0,60,-99.99,,,-99.99,meteohub,2013-08-07 19:12:00,
2013-08-07 15:17:00,86.0,71.1,29.96,SW,225,6.0,-999.0,61,-99.99,,,-99.99,meteohub,2013-08-07 19:17:00,
2013-08-07 15:22:00,87.1,73.4,29.96,SSE,157,6.0,-999.0,64,-99.99,,,-99.99,meteohub,2013-08-07 19:22:00,
2013-08-07 15:27:00,86.0,72.3,29.96,SW,225,10.0,-999.0,64,-99.99,,,-99.99,meteohub,2013-08-07 19:27:00,
2013-08-07 15:32:00,87.1,72.9,29.96,SW,225,9.0,-999.0,63,-99.99,,,-99.99,meteohub,2013-08-07 19:32:00,
2013-08-07 15:37:00,87.1,73.4,29.96,SW,225,10.0,-999.0,64,-99.99,,,-99.99,meteohub,2013-08-07 19:37:00,
2013-08-07 15:42:00,87.1,73.9,29.96,SSW,202,6.0,-999.0,65,-99.99,,,-99.99,meteohub,2013-08-07 19:42:00,
2013-08-07 15:47:00,86.0,72.9,29.96,South,180,7.0,-999.0,65,-99.99,,,-99.99,meteohub,2013-08-07 19:47:00,
2013-08-07 15:52:00,86.0,74.1,29.96,SW,225,7.0,-999.0,68,-99.99,,,-99.99,meteohub,2013-08-07 19:52:00,
2013-08-07 15:57:00,84.9,74.5,29.96,South,180,8.0,-999.0,71,-99.99,,,-99.99,meteohub,2013-08-07 19:57:00,
2013-08-07 16:02:00,84.9,73.2,29.96,SSW,202,9.0,-999.0,68,-99.99,,,-99.99,meteohub,2013-08-07 20:02:00,
2013-08-07 16:07:00,84.9,74.1,29.96,SW,225,10.0,-999.0,70,-99.99,,,-99.99,meteohub,2013-08-07 20:07:00,
2013-08-07 16:12:00,84.9,74.8,29.96,SW,225,6.0,-999.0,72,-99.99,,,-99.99,meteohub,2013-08-07 20:12:00,
2013-08-07 16:17:00,84.9,74.1,29.96,SSW,202,7.0,-999.0,70,-99.99,,,-99.99,meteohub,2013-08-07 20:17:00,
2013-08-07 16:22:00,84.9,74.1,29.96,South,180,6.0,-999.0,70,-99.99,,,-99.99,meteohub,2013-08-07 20:22:00,
2013-08-07 16:27:00,84.9,74.1,29.96,South,180,6.0,-999.0,70,-99.99,,,-99.99,meteohub,2013-08-07 20:27:00,
2013-08-07 16:32:00,84.9,74.8,29.96,NE,45,9.0,-999.0,72,-99.99,,,-99.99,meteohub,2013-08-07 20:32:00,
2013-08-07 16:37:00,80.1,71.1,29.96,NE,45,10.0,-999.0,74,-99.99,,,-99.99,meteohub,2013-08-07 20:37:00,
2013-08-07 16:42:00,80.1,75.9,29.96,SE,135,12.0,-999.0,87,-99.99,,,-99.99,meteohub,2013-08-07 20:42:00,
2013-08-07 16:47:00,80.1,77.5,29.96,SE,135,23.0,-999.0,92,-99.99,,,-99.99,meteohub,2013-08-07 20:47:00,
2013-08-07 16:52:00,78.1,76.5,29.96,SE,135,17.0,-999.0,95,-99.99,,,-99.99,meteohub,2013-08-07 20:52:00,
2013-08-07 16:57:00,77.0,75.4,29.96,SE,135,16.0,-999.0,95,-99.99,,,-99.99,meteohub,2013-08-07 20:57:00,
2013-08-07 17:02:00,75.9,72.9,29.96,SE,135,12.0,-999.0,90,-99.99,,,-99.99,meteohub,2013-08-07 21:02:00,
2013-08-07 17:07:00,77.0,73.8,29.96,SE,135,5.0,-999.0,90,-99.99,,,-99.99,meteohub,2013-08-07 21:07:00,
2013-08-07 17:12:00,77.0,72.1,29.96,SE,135,3.0,-999.0,85,-99.99,,,-99.99,meteohub,2013-08-07 21:12:00,
2013-08-07 17:17:00,77.0,72.9,29.96,SE,135,2.0,-999.0,87,-99.99,,,-99.99,meteohub,2013-08-07 21:17:00,
2013-08-07 17:22:00,78.1,73.9,29.96,SE,135,1.0,-999.0,87,-99.99,,,-99.99,meteohub,2013-08-07 21:22:00,
2013-08-07 17:27:00,78.1,73.9,29.96,SE,135,3.0,-999.0,87,-99.99,,,-99.99,meteohub,2013-08-07 21:27:00,
2013-08-07 17:32:00,78.1,73.6,29.96,SE,135,6.0,-999.0,86,-99.99,,,-99.99,meteohub,2013-08-07 21:32:00,
2013-08-07 17:37:00,79.0,74.8,29.96,NE,45,4.0,-999.0,87,-99.99,,,-99.99,meteohub,2013-08-07 21:37:00,
2013-08-07 17:42:00,79.0,76.1,29.96,NE,45,2.0,-999.0,91,-99.99,,,-99.99,meteohub,2013-08-07 21:42:00,
2013-08-07 17:47:00,79.0,75.2,29.96,NE,45,5.0,-999.0,88,-99.99,,,-99.99,meteohub,2013-08-07 21:47:00,
2013-08-07 17:52:00,78.1,74.3,29.96,NE,45,4.0,-999.0,88,-99.99,,,-99.99,meteohub,2013-08-07 21:52:00,
2013-08-07 17:57:00,78.1,74.3,29.96,NNW,337,3.0,-999.0,88,-99.99,,,-99.99,meteohub,2013-08-07 21:57:00,
2013-08-07 18:03:00,78.1,74.3,29.96,NE,45,5.0,-999.0,88,-99.99,,,-99.99,meteohub,2013-08-07 22:03:00,
2013-08-07 18:08:00,78.1,74.3,29.96,NE,45,0.0,-999.0,88,-99.99,,,-99.99,meteohub,2013-08-07 22:08:00,
2013-08-07 18:13:00,78.1,74.3,29.96,NE,45,6.0,-999.0,88,-99.99,,,-99.99,meteohub,2013-08-07 22:13:00,
2013-08-07 18:18:00,78.1,74.3,29.96,NE,45,5.0,-999.0,88,-99.99,,,0.00,meteohub,2013-08-07 22:18:00,
2013-08-07 18:23:00,77.0,72.9,29.96,NE,45,6.0,-999.0,87,-99.99,,,0.00,meteohub,2013-08-07 22:23:00,
2013-08-07 18:28:00,78.1,73.9,29.96,NE,45,4.0,-999.0,87,-99.99,,,0.00,meteohub,2013-08-07 22:28:00,
2013-08-07 18:33:00,77.0,72.5,29.96,NE,45,4.0,-999.0,86,-99.99,,,0.00,meteohub,2013-08-07 22:33:00,
2013-08-07 18:38:00,77.0,73.8,29.95,NE,45,2.0,-999.0,90,-99.99,,,0.00,meteohub,2013-08-07 22:38:00,
2013-08-07 18:43:00,78.1,73.9,29.95,NE,45,4.0,-999.0,87,-99.99,,,0.00,meteohub,2013-08-07 22:43:00,
2013-08-07 18:48:00,78.1,73.9,29.96,NE,45,2.0,-999.0,87,-99.99,,,0.00,meteohub,2013-08-07 22:48:00,
2013-08-07 18:54:00,78.1,73.6,29.96,NE,45,2.0,-999.0,86,-99.99,,,0.00,meteohub,2013-08-07 22:54:00,
2013-08-07 18:59:00,78.1,73.2,29.96,NE,45,2.0,-999.0,85,-99.99,,,0.00,meteohub,2013-08-07 22:59:00,
2013-08-07 19:04:00,78.1,73.2,29.96,NE,45,0.0,-999.0,85,-99.99,,,0.00,meteohub,2013-08-07 23:04:00,
2013-08-07 19:09:00,78.1,73.2,29.96,NE,45,3.0,-999.0,85,-99.99,,,0.00,meteohub,2013-08-07 23:09:00,
2013-08-07 19:14:00,78.1,73.2,29.96,NE,45,2.0,-999.0,85,-99.99,,,0.00,meteohub,2013-08-07 23:14:00,
2013-08-07 19:19:00,78.1,73.2,29.96,NE,45,2.0,-999.0,85,-99.99,,,0.00,meteohub,2013-08-07 23:19:00,
2013-08-07 19:24:00,78.1,73.6,29.96,NE,45,3.0,-999.0,86,-99.99,,,0.00,meteohub,2013-08-07 23:24:00,
2013-08-07 19:29:00,78.1,73.6,29.96,NE,45,2.0,-999.0,86,-99.99,,,0.00,meteohub,2013-08-07 23:29:00,
2013-08-07 19:34:00,78.1,74.8,29.96,NE,45,3.0,-999.0,90,-99.99,,,0.00,meteohub,2013-08-07 23:34:00,
2013-08-07 19:39:00,78.1,73.6,29.96,NE,45,5.0,-999.0,86,-99.99,,,0.00,meteohub,2013-08-07 23:39:00,
2013-08-07 19:45:00,78.1,73.2,29.95,NE,45,5.0,-999.0,85,-99.99,,,0.00,meteohub,2013-08-07 23:45:00,
2013-08-07 19:50:00,78.1,73.2,29.95,NE,45,4.0,-999.0,85,-99.99,,,0.00,meteohub,2013-08-07 23:50:00,
2013-08-07 19:55:00,78.1,74.5,29.95,NE,45,1.0,-999.0,89,-99.99,,,0.00,meteohub,2013-08-07 23:55:00,
2013-08-07 20:00:00,78.1,73.2,29.95,NE,45,6.0,-999.0,85,-99.99,,,0.00,meteohub,2013-08-08 00:00:00,
2013-08-07 20:05:00,78.1,73.2,29.96,NE,45,4.0,-999.0,85,-99.99,,,0.00,meteohub,2013-08-08 00:05:00,
2013-08-07 20:10:00,78.1,73.2,29.96,NE,45,3.0,-999.0,85,-99.99,,,0.00,meteohub,2013-08-08 00:10:00,
2013-08-07 20:15:00,78.1,73.2,29.96,NE,45,1.0,-999.0,85,-99.99,,,0.00,meteohub,2013-08-08 00:15:00,
2013-08-07 20:20:00,78.1,73.6,29.96,NE,45,3.0,-999.0,86,-99.99,,,0.00,meteohub,2013-08-08 00:20:00,
2013-08-07 20:25:00,78.1,73.6,29.96,NE,45,0.0,-999.0,86,-99.99,,,0.00,meteohub,2013-08-08 00:25:00,
2013-08-07 20:31:00,78.1,74.8,29.96,NE,45,0.0,-999.0,90,-99.99,,,0.00,meteohub,2013-08-08 00:31:00,
2013-08-07 20:36:00,78.1,73.9,29.96,NE,45,0.0,-999.0,87,-99.99,,,0.00,meteohub,2013-08-08 00:36:00,
2013-08-07 20:41:00,78.1,73.9,29.96,NE,45,1.0,-999.0,87,-99.99,,,0.00,meteohub,2013-08-08 00:41:00,
2013-08-07 20:46:00,78.1,73.9,29.96,NW,315,2.0,-999.0,87,-99.99,,,0.00,meteohub,2013-08-08 00:46:00,
2013-08-07 20:51:00,78.1,75.2,29.96,NE,45,3.0,-999.0,91,-99.99,,,0.00,meteohub,2013-08-08 00:51:00,
2013-08-07 20:56:00,79.0,74.8,29.96,NE,45,3.0,-999.0,87,-99.99,,,0.00,meteohub,2013-08-08 00:56:00,
2013-08-07 21:01:00,78.1,73.9,29.96,NE,45,3.0,-999.0,87,-99.99,,,0.00,meteohub,2013-08-08 01:01:00,
2013-08-07 21:06:00,78.1,73.9,29.96,NE,45,2.0,-999.0,87,-99.99,,,0.00,meteohub,2013-08-08 01:06:00,
2013-08-07 21:11:00,78.1,74.3,29.96,NE,45,4.0,-999.0,88,-99.99,,,0.00,meteohub,2013-08-08 01:11:00,
2013-08-07 21:16:00,78.1,74.3,29.96,NE,45,3.0,-999.0,88,-99.99,,,0.00,meteohub,2013-08-08 01:16:00,
2013-08-07 21:21:00,78.1,74.3,29.96,NE,45,4.0,-999.0,88,-99.99,,,0.00,meteohub,2013-08-08 01:21:00,
2013-08-07 21:27:00,78.1,75.6,29.96,NE,45,6.0,-999.0,92,-99.99,,,0.00,meteohub,2013-08-08 01:27:00,
2013-08-07 21:32:00,78.1,74.3,29.96,NE,45,4.0,-999.0,88,-99.99,,,0.00,meteohub,2013-08-08 01:32:00,
2013-08-07 21:37:00,78.1,74.5,29.98,NE,45,2.0,-999.0,89,-99.99,,,0.00,meteohub,2013-08-08 01:37:00,
2013-08-07 21:42:00,78.1,74.5,29.98,NE,45,0.0,-999.0,89,-99.99,,,0.00,meteohub,2013-08-08 01:42:00,
2013-08-07 21:47:00,78.1,74.8,29.98,NE,45,3.0,-999.0,90,-99.99,,,0.00,meteohub,2013-08-08 01:47:00,
2013-08-07 21:52:00,78.1,74.8,29.98,NE,45,2.0,-999.0,90,-99.99,,,0.00,meteohub,2013-08-08 01:52:00,
2013-08-07 21:57:00,78.1,74.8,29.98,NE,45,1.0,-999.0,90,-99.99,,,0.00,meteohub,2013-08-08 01:57:00,
2013-08-07 22:02:00,78.1,74.8,29.99,NE,45,1.0,-999.0,90,-99.99,,,0.00,meteohub,2013-08-08 02:02:00,
2013-08-07 22:07:00,78.1,74.8,29.99,NE,45,3.0,-999.0,90,-99.99,,,0.00,meteohub,2013-08-08 02:07:00,
2013-08-07 22:12:00,78.1,74.8,29.99,NE,45,4.0,-999.0,90,-99.99,,,0.00,meteohub,2013-08-08 02:12:00,
2013-08-07 22:17:00,78.1,74.8,29.99,NE,45,3.0,-999.0,90,-99.99,,,0.00,meteohub,2013-08-08 02:17:00,
2013-08-07 22:23:00,78.1,76.3,29.99,NE,45,2.0,-999.0,94,-99.99,,,0.00,meteohub,2013-08-08 02:23:00,
2013-08-07 22:28:00,78.1,74.8,29.99,NE,45,4.0,-999.0,90,-99.99,,,0.00,meteohub,2013-08-08 02:28:00,
2013-08-07 22:33:00,78.1,74.8,29.99,NE,45,0.0,-999.0,90,-99.99,,,0.00,meteohub,2013-08-08 02:33:00,
2013-08-07 22:38:00,78.1,75.2,30.00,NE,45,3.0,-999.0,91,-99.99,,,0.00,meteohub,2013-08-08 02:38:00,
2013-08-07 22:43:00,78.1,76.5,30.00,NE,45,6.0,-999.0,95,-99.99,,,0.00,meteohub,2013-08-08 02:43:00,
2013-08-07 22:48:00,78.1,75.2,30.00,NE,45,6.0,-999.0,91,-99.99,,,0.00,meteohub,2013-08-08 02:48:00,
2013-08-07 22:53:00,78.1,75.2,29.99,NE,45,6.0,-999.0,91,-99.99,,,0.00,meteohub,2013-08-08 02:53:00,
2013-08-07 22:58:00,78.1,74.8,29.99,NE,45,7.0,-999.0,90,-99.99,,,0.00,meteohub,2013-08-08 02:58:00,
2013-08-07 23:03:00,78.1,74.8,29.99,NE,45,5.0,-999.0,90,-99.99,,,0.00,meteohub,2013-08-08 03:03:00,
2013-08-07 23:08:00,78.1,74.8,29.99,NE,45,5.0,-999.0,90,-99.99,,,0.00,meteohub,2013-08-08 03:08:00,
2013-08-07 23:13:00,78.1,75.2,29.99,NE,45,6.0,-999.0,91,-99.99,,,0.00,meteohub,2013-08-08 03:13:00,
2013-08-07 23:19:00,78.1,76.5,29.99,NE,45,3.0,-999.0,95,-99.99,,,0.00,meteohub,2013-08-08 03:19:00,
2013-08-07 23:24:00,78.1,74.8,29.99,NE,45,6.0,-999.0,90,-99.99,,,0.00,meteohub,2013-08-08 03:24:00,
2013-08-07 23:29:00,78.1,75.2,29.99,NE,45,7.0,-999.0,91,-99.99,,,0.00,meteohub,2013-08-08 03:29:00,
2013-08-07 23:34:00,78.1,75.2,30.00,NE,45,7.0,-999.0,91,-99.99,,,0.00,meteohub,2013-08-08 03:34:00,
2013-08-07 23:39:00,78.1,76.5,29.99,NE,45,6.0,-999.0,95,-99.99,,,0.00,meteohub,2013-08-08 03:39:00,
2013-08-07 23:44:00,78.1,75.2,29.99,NE,45,6.0,-999.0,91,-99.99,,,0.00,meteohub,2013-08-08 03:44:00,
2013-08-07 23:49:00,78.1,75.2,29.99,NE,45,5.0,-999.0,91,-99.99,,,0.00,meteohub,2013-08-08 03:49:00,
2013-08-07 23:54:00,78.1,75.6,29.99,NE,45,5.0,-999.0,92,-99.99,,,0.00,meteohub,2013-08-08 03:54:00,
2013-08-07 23:59:00,78.1,75.6,29.99,NE,45,4.0,-999.0,92,-99.99,,,0.00,meteohub,2013-08-08 03:59:00,